Showing default

LEMUR 2 ANDIS, 42838

Orbit data source: Space-Track

LEMUR 2 ANDIS, 42838 is a payload satellite owned by Spire (US) in SSO that was launched on Fri, 14 Jul 2017 UTC via a SOYUZ-2-1A launch vehicle from the Tyuratam Missile And Space Complex (TTMTR). Payload-class satellites include a variety of spacecraft equipped with specific instruments for various scientific and technological missions. These include communications satellites like Starlink; space stations such as the ISS; scientific satellites like the Hubble; Earth observation satellites from companies like Planet Labs, Umbra, and HawkEye 360; GPS; miniature CubeSats for education and research; and military/defense satellites.

Loading next visibility...
Identifier
42838, 2017-042P
Orbit
SSO
Country
Flag of USUS
Related business
Manufacturer
Spire/Glasgow
Mission
Operational Commercial Com/MetRO
Bus & Motor
CUBESAT 3U, Unknown motor
Mass
4 kg wet, 4 kg dry
Launch date (UTC)
2017-07-14 (9 years ago)
Launch vehicle
SOYUZ-2-1A
Launch site
Tyuratam Missile And Space Complex (TTMTR)
Object type
Payload
Rocket body
Debris
Shape & HBR
Box, 0.5 m
Radar Cross Section
0.093 m², Small (<0.1 m²)

Expand to show TLE details & history
Last TLE update: 11 hours ago

TLE from 11 hours ago
0 LEMUR 2 ANDIS
1 42838U 17042P   26133.02404751  .00012407  00000-0  38594-3 0  9993
2 42838  97.3675 313.9167 0009993 128.5473 231.6666 15.33406426483069
Epoch: 2026-05-13T00:34Z
TLE epoch observation values (Epoch: 2026-05-13T00:34:37.704Z)
Latitude
-0.00011°
Longitude
74.4696°
Altitude
473.015 km
Speed
7.627 km/s
True Right ascension
20h 55m 40s
True Declination
0° 00' 00"
Sunlit
Object was in daylight at epoch
Visualization orbit readout
Latitude
Unknown
Longitude
Unknown
Altitude
Unknown
Speed
Unknown
Apparent Right ascension
Unknown
Apparent Declination
Unknown
Sunlit
N/A
Visualization observer readout
Local Sidereal Time
19:32:05
Azimuth
Unknown
Elevation
Unknown
Doppler factor
Unknown
Orbital elements
Apogee altitude
469.44 km
Perigee altitude
455.768 km
Semi-major axis
6,840.741 km
Eccentricity
0.001
Inclination
97.3675°
RAAN
313.9167°
Arg. of periapsis
128.5473°
True anomaly
231.57685°
Mean anomaly
231.6666°
Eccentric anomaly
231.62172°
Mean motion
3.83609 °/min
Orbital period
93.85 mins
BSTAR
0.00038594
Loading maneuver chart data...
Computing Atmospheric mass density...

Documentation

Showing up to 5 results
|